Wetbulb
57.88 57.76 57.28 56.80 55.96 55.44 55.41 55.92 56.15 55.67 56.35 56.76 56.86 57.45 57.81 57.97 56.89 60.31 57.02 59.08 60.70 60.57 58.91 59.07 58.26 57.74 56.29 53.25 54.15 53.96 48.40 45.92 45.96 46.30 46.75 50.14 49.30 51.34 54.15 53.89 54.99 55.73 58.77 61.09 64.66
57.60 57.74 57.33 56.83 55.92 55.83 55.48 55.89 56.04 56.02 56.28 56.55 57.13 57.54 57.85 57.47 60.81 56.90 58.35 62.69 63.18 62.56 59.29 56.65 54.93 54.59 53.51 52.48 53.11 50.91 48.63 46.52 49.04 49.45 48.54 49.46 49.83 49.94 51.65 51.64 52.21 55.38 58.66 63.77 64.92
57.63 57.36 57.16 57.15 56.64 56.16 55.81 56.12 55.93 55.76 56.02 56.62 57.24 57.71 57.54 57.83 58.57 55.92 61.67 62.52 62.48 62.27 60.90 57.92 55.60 54.71 51.49 52.87 51.65 50.73 47.85 49.05 48.57 49.81 50.46 49.25 48.78 50.41 49.84 49.35 52.43 53.39 56.22 61.90 63.20
56.84 56.41 56.66 56.66 56.41 55.97 55.88 55.74 56.13 55.97 56.26 56.80 57.38 57.72 57.64 61.88 48.46 58.26 62.06 62.88 63.31 63.36 58.88 56.75 55.46 52.53 51.08 49.68 51.86 47.84 49.77 49.45 49.38 49.78 49.77 48.79 50.80 49.14 50.38 51.60 54.01 55.00 58.45 61.06 61.83
56.17 56.21 56.25 56.45 55.96 55.68 55.73 55.82 56.10 55.97 56.36 56.76 57.08 57.63 60.61 57.23 54.20 59.86 61.87 64.31 61.15 59.86 57.43 55.18 53.09 52.10 48.82 49.78 50.29 49.10 49.43 49.90 50.29 50.13 50.42 51.05 49.77 49.80 50.17 53.03 53.81 56.03 58.60 60.14 61.71
55.72 55.82 56.04 56.31 56.46 55.83 56.00 55.80 55.76 56.06 56.43 56.63 57.13 56.92 59.83 52.06 59.16 60.07 59.28 59.21 59.55 58.40 56.13 55.86 54.13 54.39 51.03 50.97 50.93 51.92 51.82 51.87 51.94 51.41 51.47 50.58 50.69 51.57 52.00 53.62 53.14 55.06 57.16 59.24 60.13
55.78 55.58 55.64 55.80 56.22 56.44 56.42 56.06 55.78 55.86 56.29 56.68 57.25 60.53 58.96 54.42 59.70 59.95 58.66 58.35 59.27 59.22 55.96 57.48 56.91 54.30 54.49 51.86 53.99 52.68 49.84 51.66 51.98 52.55 51.38 52.33 49.10 49.71 53.07 53.47 52.97 53.58 55.34 58.19 59.45
55.60 55.56 55.09 55.40 55.68 55.64 55.60 55.34 55.38 55.78 56.19 56.70 56.73 61.29 54.56 59.02 61.06 58.02 58.54 57.69 59.46 60.25 59.28 59.01 58.57 56.45 55.02 55.48 52.19 50.16 50.80 47.45 50.91 51.66 52.25 52.04 47.73 51.47 53.98 53.72 53.07 54.26 55.04 56.34 58.68
55.39 55.33 55.22 54.81 54.66 54.85 54.89 54.93 55.01 55.87 56.45 56.93 60.72 61.54 52.14 58.46 56.21 57.25 58.07 55.95 58.02 59.29 58.93 57.45 57.98 54.64 54.23 50.77 48.58 48.84 45.62 45.30 47.80 51.23 50.70 50.69 48.54 52.76 54.22 53.21 52.81 53.73 54.82 55.32 57.17
54.94 55.13 55.07 54.84 54.69 54.63 54.52 54.56 55.47 55.77 57.66 60.70 59.93 54.80 53.95 52.36 55.24 56.41 58.18 58.22 57.01 57.43 56.16 55.64 54.75 51.93 51.08 49.03 43.62 44.77 44.24 45.30 45.36 49.52 49.11 48.53 48.53 51.76 52.34 52.36 52.84 53.99 54.92 55.13 55.80
55.02 55.29 55.09 54.98 55.07 54.44 55.49 60.26 56.83 56.68 57.16 53.32 52.96 52.34 52.90 55.45 57.77 55.86 57.14 56.70 56.57 55.38 51.59 53.13 50.36 48.64 48.35 48.82 48.18 46.90 45.75 45.08 47.39 49.60 48.35 48.20 48.79 49.58 51.80 52.85 52.85 53.40 53.84 54.39 56.06
54.93 55.48 54.94 54.83 54.79 54.79 60.64 59.41 58.91 59.22 51.02 54.45 54.50 54.78 55.60 56.43 52.30 55.11 58.40 53.90 53.48 49.87 51.16 49.41 48.15 49.27 49.73 49.31 48.05 47.52 46.12 46.01 47.86 49.04 48.61 48.74 48.30 49.76 51.13 51.72 53.27 53.78 54.78 55.93 56.59
54.86 55.38 55.41 54.68 54.20 58.96 63.00 61.40 64.56 62.52 51.52 51.69 53.88 53.18 53.72 55.82 52.31 52.90 56.07 53.43 50.48 48.04 48.12 48.23 48.54 49.33 49.05 48.34 47.38 47.78 46.27 46.31 45.74 48.62 50.07 48.70 47.14 47.80 50.39 51.89 52.58 53.63 54.40 54.87 54.78
54.65 55.42 54.34 53.47 56.21 63.78 60.92 63.54 65.80 63.74 48.60 46.92 50.25 52.47 54.05 54.56 51.10 56.23 56.45 53.52 50.53 47.40 48.97 48.42 50.10 48.50 48.22 47.06 48.44 45.58 48.43 47.68 47.00 46.01 43.50 49.28 42.91 46.78 49.00 49.39 50.90 52.26 53.40 53.93 54.28
54.53 55.65 53.50 54.18 62.52 59.54 61.92 66.06 67.20 63.62 39.18 48.50 50.31 56.90 54.41 52.15 52.45 53.16 57.01 54.16 48.99 48.89 49.78 46.82 47.74 47.96 47.13 47.19 49.09 47.01 49.70 48.06 47.84 46.71 46.43 46.11 43.48 45.79 48.80 47.15 48.97 51.39 52.72 53.77 54.53
54.94 55.10 53.81 59.51 65.38 62.95 65.48 66.16 65.24 49.70 37.43 46.20 50.57 50.66 50.94 52.04 51.65 53.68 53.42 55.58 54.59 49.90 50.68 49.28 51.77 50.79 49.49 50.03 49.44 50.66 49.07 48.24 48.78 47.37 41.08 45.37 44.13 44.85 46.74 47.63 49.11 51.66 52.75 53.66 54.66
54.68 55.29 56.50 64.17 60.14 65.75 66.87 62.59 46.56 42.42 48.30 45.15 47.44 49.91 49.80 48.99 49.54 51.05 50.07 49.68 48.85 45.43 45.46 47.83 48.13 51.07 51.32 48.76 50.82 50.28 47.35 41.94 39.75 40.28 39.65 45.47 42.56 45.03 48.08 49.55 50.44 50.48 51.75 53.25 54.42
54.77 55.78 59.67 64.78 66.93 65.97 63.43 53.41 42.41 45.53 45.88 49.51 49.12 49.46 46.99 49.21 48.75 49.04 48.79 47.53 50.16 49.00 47.39 44.23 42.07 48.14 50.44 48.40 46.33 47.00 46.58 41.23 33.08 36.56 39.85 44.64 39.58 45.15 49.90 51.24 51.38 51.61 52.03 52.71 53.12
54.36 64.89 64.06 65.08 66.80 65.14 56.60 47.26 45.98 46.59 48.66 47.82 48.55 46.26 45.93 47.89 48.34 48.63 48.19 46.89 48.03 49.90 45.72 44.02 43.38 49.26 49.58 50.77 49.75 46.74 44.37 47.01 41.06 38.99 37.95 42.06 45.03 48.53 49.70 49.55 49.92 50.44 51.30 51.62 52.29
60.70 60.05 60.68 65.11 66.31 63.04 54.55 45.68 47.76 49.92 49.69 49.91 45.08 47.37 44.69 46.51 46.65 47.28 46.70 48.19 47.30 49.56 51.07 46.50 42.60 46.68 48.28 50.15 50.34 48.27 48.92 42.83 44.23 33.37 31.02 38.99 40.12 42.06 45.76 47.52 49.68 49.17 49.96 51.32 52.23
60.93 54.86 62.04 66.06 63.98 56.24 49.26 48.17 48.63 51.15 51.62 49.17 47.15 46.26 47.55 46.06 47.46 46.23 45.86 47.83 49.42 48.78 50.46 47.85 44.85 44.54 46.41 45.89 44.76 46.63 46.18 44.68 43.81 41.35 34.62 32.88 38.37 47.77 46.74 47.93 47.82 48.96 50.37 51.38 51.97
59.43 52.32 62.96 64.41 52.45 54.45 50.26 49.89 48.72 50.75 52.68 50.98 51.38 49.55 48.27 48.14 46.64 46.34 45.76 48.35 50.62 50.32 46.36 48.01 45.62 40.64 42.01 47.13 49.07 47.50 45.17 44.67 38.71 35.30 39.15 37.37 37.50 48.56 48.44 48.91 48.89 49.55 50.55 51.03 52.11
56.06 56.35 62.86 62.15 50.31 51.63 51.20 49.92 51.18 50.46 50.34 50.32 49.27 50.73 51.20 48.58 44.83 47.53 47.92 50.28 50.79 50.06 48.28 48.80 44.90 38.82 40.75 44.65 47.19 44.41 45.65 44.74 42.44 40.88 35.98 35.69 38.01 48.03 49.06 48.78 49.48 49.36 50.16 50.63 50.79
57.41 52.45 55.94 57.87 56.74 51.76 49.85 49.07 48.16 51.90 50.53 51.48 50.52 51.70 50.15 47.84 49.74 47.07 47.40 49.36 50.75 50.60 45.14 48.59 45.37 40.45 37.07 40.21 43.47 40.73 42.64 43.75 42.61 37.07 37.92 38.88 41.02 45.35 46.65 47.19 48.30 49.00 50.03 50.66 50.07
58.64 54.37 54.96 50.66 52.21 52.56 52.46 50.70 48.45 46.95 51.18 52.09 49.47 49.62 48.79 45.23 47.01 46.17 48.66 48.61 49.42 45.35 48.93 48.56 40.99 43.34 43.68 43.81 43.24 42.30 41.86 42.52 40.99 41.69 37.58 40.35 41.37 44.89 46.62 46.90 47.94 49.59 49.62 49.03 48.58
55.20 54.53 56.28 54.74 53.60 52.28 47.93 49.55 48.52 48.37 49.81 48.34 48.73 49.89 49.66 46.56 46.18 45.15 46.97 46.50 45.70 48.58 48.00 47.86 41.51 41.90 39.05 42.86 42.52 40.18 42.26 42.70 42.59 42.53 42.72 42.51 41.86 47.68 48.53 49.01 48.17 47.95 47.76 46.72 47.64
59.79 59.51 57.58 47.33 52.51 51.09 50.14 50.18 49.65 51.09 50.36 51.47 51.35 49.70 48.24 49.18 51.92 52.35 51.86 50.66 49.44 47.51 45.63 44.98 43.43 39.06 35.72 40.88 39.59 35.99 40.50 41.58 42.41 43.95 43.02 38.84 43.78 47.36 46.52 46.32 45.59 45.57 46.15 47.11 46.31
MSLP
1016.77 1016.73 1016.60 1016.55 1016.66 1016.64 1016.66 1016.60 1016.60 1016.29 1016.10 1015.85 1015.50 1015.08 1014.67 1014.24 1013.29 1012.88 1010.99 1010.97 1010.80 1010.85 1010.76 1009.70 1009.03 1008.56 1008.01 1007.10 1006.89 1006.06 1004.98 1004.94 1005.93 1006.31 1007.58 1008.20 1008.09 1008.85 1009.01 1009.20 1009.55 1009.90 1009.53 1010.62 1012.27
1016.51 1016.36 1016.28 1016.24 1016.27 1016.28 1016.31 1016.34 1016.24 1016.03 1015.88 1015.62 1015.35 1014.97 1014.71 1014.41 1012.72 1010.27 1010.93 1010.63 1010.59 1010.74 1010.01 1008.79 1008.08 1007.77 1006.77 1006.72 1006.65 1005.64 1004.67 1005.72 1006.78 1007.03 1007.47 1008.08 1007.82 1008.63 1008.81 1009.16 1009.42 1010.04 1010.77 1011.23 1012.38
1016.15 1016.04 1015.98 1015.92 1015.85 1015.99 1016.02 1015.99 1015.99 1015.87 1015.65 1015.46 1015.10 1014.78 1014.27 1014.01 1011.85 1009.68 1010.37 1010.42 1010.32 1010.32 1009.09 1007.96 1007.53 1006.87 1006.58 1006.55 1006.42 1005.55 1005.48 1007.15 1007.78 1007.77 1007.68 1007.92 1008.14 1008.75 1008.35 1008.50 1009.01 1009.48 1010.52 1011.13 1012.14
1015.76 1015.65 1015.60 1015.62 1015.67 1015.74 1015.78 1015.82 1015.85 1015.65 1015.52 1015.27 1015.08 1014.61 1014.16 1013.16 1010.26 1009.69 1010.06 1010.10 1009.99 1009.29 1008.42 1007.68 1007.06 1006.25 1006.14 1006.15 1006.21 1006.46 1007.17 1007.56 1008.13 1008.81 1008.33 1008.04 1008.28 1008.49 1008.20 1008.34 1009.03 1009.37 1010.16 1010.86 1011.57
1015.32 1015.29 1015.30 1015.33 1015.47 1015.53 1015.66 1015.67 1015.57 1015.51 1015.34 1015.21 1015.03 1014.65 1013.87 1011.64 1009.75 1009.52 1009.89 1009.26 1008.97 1008.47 1007.57 1007.06 1006.50 1006.13 1005.92 1005.98 1006.39 1007.03 1007.89 1008.24 1008.74 1009.13 1008.70 1008.82 1008.58 1008.54 1008.57 1008.94 1009.57 1009.67 1010.15 1010.66 1011.14
1015.01 1014.98 1014.99 1015.12 1015.24 1015.31 1015.48 1015.48 1015.43 1015.28 1015.11 1015.14 1014.83 1014.56 1012.99 1010.22 1009.85 1009.43 1009.36 1008.84 1008.20 1007.69 1007.44 1007.19 1006.71 1006.52 1006.36 1006.56 1006.81 1007.71 1008.19 1008.53 1008.94 1009.21 1009.15 1009.05 1008.69 1008.77 1008.76 1009.00 1009.24 1009.63 1009.96 1010.16 1010.54
1014.70 1014.65 1014.70 1014.82 1014.96 1015.12 1015.25 1015.22 1015.18 1015.04 1014.98 1014.81 1014.63 1013.65 1011.58 1010.07 1009.70 1009.41 1009.15 1008.87 1008.67 1008.37 1007.58 1007.79 1007.46 1007.32 1007.44 1007.80 1008.06 1008.16 1008.20 1008.52 1008.72 1008.80 1008.63 1008.93 1008.21 1008.24 1008.69 1009.20 1009.16 1009.45 1009.42 1009.73 1010.17
1014.44 1014.34 1014.43 1014.56 1014.74 1014.91 1015.01 1015.03 1014.86 1014.78 1014.79 1014.71 1014.49 1012.97 1010.52 1010.17 1009.63 1009.45 1009.18 1008.99 1008.94 1008.69 1008.41 1008.35 1008.29 1007.93 1007.51 1008.20 1008.25 1007.98 1007.80 1007.49 1008.53 1008.72 1008.92 1008.92 1006.80 1007.79 1008.79 1008.85 1008.74 1009.03 1009.27 1009.60 1009.79
1014.10 1014.17 1014.27 1014.34 1014.53 1014.70 1014.82 1014.68 1014.71 1014.72 1014.60 1014.24 1013.56 1012.06 1010.01 1010.37 1009.78 1009.65 1009.59 1008.90 1009.09 1009.06 1009.04 1009.09 1008.47 1007.95 1008.46 1007.90 1007.60 1007.49 1006.60 1007.22 1008.30 1008.87 1008.69 1008.46 1006.81 1007.38 1008.55 1008.93 1008.72 1008.57 1008.73 1009.24 1009.77
1013.99 1013.91 1013.95 1014.04 1014.26 1014.40 1014.46 1014.55 1014.48 1014.39 1013.97 1012.85 1011.74 1010.92 1010.24 1009.81 1009.89 1009.94 1009.68 1009.62 1008.99 1009.00 1008.95 1008.69 1008.02 1007.62 1007.32 1007.13 1006.59 1006.54 1007.21 1008.09 1007.95 1008.75 1008.81 1008.08 1007.80 1007.87 1008.92 1008.93 1008.31 1008.23 1008.53 1009.03 1009.70
1013.67 1013.77 1013.82 1013.97 1014.09 1014.22 1014.34 1013.95 1013.97 1013.15 1011.72 1010.81 1010.17 1010.12 1009.87 1009.96 1010.10 1009.59 1009.82 1009.49 1009.11 1008.84 1008.10 1008.38 1007.58 1007.32 1008.14 1008.76 1008.67 1008.38 1008.42 1008.12 1008.43 1009.27 1009.14 1008.38 1008.31 1008.83 1009.20 1008.66 1008.78 1008.90 1009.32 1009.72 1010.30
1013.84 1013.73 1013.75 1013.93 1014.11 1014.28 1014.03 1011.66 1011.63 1011.16 1011.29 1011.15 1010.83 1010.51 1010.49 1010.14 1009.57 1009.69 1009.66 1009.29 1008.91 1008.06 1008.63 1008.47 1008.39 1009.69 1009.86 1009.76 1009.47 1009.29 1009.04 1008.76 1009.26 1009.80 1009.85 1008.72 1008.37 1009.44 1009.76 1010.01 1009.71 1009.88 1010.33 1010.93 1011.89
1013.77 1013.78 1013.84 1013.98 1014.07 1014.07 1012.40 1011.98 1011.65 1011.31 1010.72 1011.16 1010.90 1010.33 1010.47 1009.99 1010.05 1010.03 1009.68 1009.23 1008.56 1008.54 1008.46 1008.53 1009.90 1010.76 1010.50 1010.19 1009.99 1009.64 1009.86 1010.12 1010.23 1009.85 1009.68 1009.26 1008.60 1009.60 1010.36 1010.66 1011.04 1011.35 1011.70 1012.08 1012.90
1013.88 1013.73 1013.74 1013.85 1014.28 1012.49 1012.06 1012.23 1011.96 1012.09 1010.67 1011.11 1010.41 1010.43 1010.41 1010.28 1010.34 1010.50 1010.50 1010.02 1009.37 1008.99 1009.12 1010.02 1010.96 1010.98 1010.82 1010.81 1011.00 1010.36 1011.20 1011.26 1010.74 1010.05 1008.37 1008.99 1007.86 1009.24 1010.13 1011.08 1011.72 1012.28 1012.81 1013.38 1013.82
1013.56 1013.50 1013.72 1013.69 1012.43 1011.93 1012.48 1012.37 1012.18 1012.00 1010.49 1011.35 1010.53 1010.57 1010.18 1010.13 1010.41 1010.55 1010.58 1009.95 1009.60 1010.04 1010.47 1010.83 1011.07 1011.19 1011.06 1011.69 1011.82 1011.25 1011.90 1011.55 1010.97 1010.11 1009.13 1008.74 1008.52 1009.23 1010.17 1011.04 1012.25 1013.12 1013.78 1014.36 1014.84
1013.56 1013.55 1013.85 1013.57 1012.62 1012.73 1012.63 1012.50 1012.30 1011.55 1010.72 1010.90 1010.47 1010.26 1010.35 1010.59 1010.72 1010.75 1010.68 1010.69 1010.82 1010.48 1010.46 1011.27 1011.94 1011.97 1012.19 1012.28 1012.32 1012.19 1011.74 1011.34 1011.02 1010.15 1009.62 1009.06 1009.39 1009.00 1009.96 1011.48 1012.78 1013.72 1014.65 1015.17 1015.38
1013.72 1013.84 1014.23 1012.53 1012.30 1012.96 1012.82 1012.23 1011.50 1010.76 1011.22 1010.84 1010.51 1010.59 1010.60 1010.93 1011.31 1010.96 1011.02 1011.17 1010.77 1010.83 1011.00 1011.58 1012.03 1012.49 1012.83 1011.92 1012.10 1011.63 1011.15 1010.70 1010.83 1010.50 1009.96 1010.47 1010.42 1010.82 1011.92 1012.81 1013.54 1014.49 1015.33 1015.74 1015.98
1013.81 1013.82 1013.50 1013.02 1012.97 1013.15 1012.69 1011.71 1010.99 1010.62 1010.35 1010.61 1010.67 1010.90 1010.92 1011.33 1011.88 1011.88 1011.38 1011.67 1012.30 1011.71 1011.33 1011.38 1012.23 1012.71 1013.23 1013.06 1012.76 1012.41 1012.31 1012.33 1012.04 1011.68 1010.98 1011.30 1010.65 1010.77 1012.64 1013.66 1014.68 1015.14 1015.63 1015.93 1016.28
1013.90 1013.32 1012.96 1013.62 1013.46 1013.20 1012.13 1011.36 1010.56 1010.61 1010.71 1010.71 1010.95 1010.85 1011.43 1011.87 1011.82 1012.22 1012.59 1012.90 1013.53 1013.33 1012.51 1012.49 1012.77 1013.73 1013.85 1013.55 1013.47 1012.67 1012.95 1013.90 1013.72 1014.24 1013.43 1011.42 1011.45 1012.45 1013.21 1013.98 1014.72 1015.21 1015.65 1016.08 1016.49
1013.09 1012.78 1012.83 1013.66 1013.47 1012.78 1011.73 1011.45 1011.28 1011.41 1011.14 1010.89 1010.58 1011.04 1010.99 1011.68 1011.95 1012.25 1012.89 1014.18 1014.21 1014.56 1014.24 1014.01 1013.50 1013.93 1014.01 1014.11 1013.99 1013.67 1014.22 1013.94 1014.00 1014.36 1013.55 1011.63 1011.64 1010.87 1013.13 1013.66 1014.18 1014.88 1015.54 1016.15 1016.42
1012.87 1012.32 1013.43 1013.44 1013.33 1012.02 1011.45 1011.45 1011.86 1012.17 1011.74 1011.31 1011.14 1011.35 1011.36 1012.05 1012.25 1012.89 1013.71 1014.89 1014.90 1015.05 1014.85 1014.70 1014.59 1014.37 1014.44 1014.05 1013.90 1013.90 1014.09 1014.85 1014.98 1015.50 1014.95 1013.92 1012.60 1012.79 1012.98 1013.75 1014.56 1015.22 1015.85 1016.36 1016.64
1012.76 1011.73 1013.27 1013.37 1012.48 1011.80 1011.61 1011.79 1012.40 1012.27 1012.34 1012.10 1011.83 1011.77 1011.99 1012.55 1012.92 1013.50 1014.12 1014.86 1015.86 1015.74 1015.41 1016.10 1015.62 1014.97 1014.50 1015.13 1015.27 1015.04 1014.98 1015.41 1015.93 1016.28 1016.26 1016.04 1014.48 1013.85 1014.08 1014.60 1015.18 1015.36 1015.98 1016.65 1017.19
1011.60 1011.98 1013.11 1013.01 1012.02 1012.01 1012.24 1012.42 1012.27 1012.41 1012.30 1012.29 1012.49 1012.54 1012.83 1013.01 1013.70 1014.19 1015.01 1016.22 1016.25 1016.34 1016.74 1016.81 1016.22 1015.45 1014.69 1015.52 1015.73 1015.54 1015.56 1016.31 1017.08 1017.73 1016.90 1016.12 1014.94 1014.25 1014.22 1014.37 1014.76 1015.26 1016.29 1016.89 1017.22
1011.55 1011.76 1012.35 1012.32 1011.81 1011.37 1011.72 1011.99 1012.55 1013.02 1013.05 1012.87 1013.01 1013.08 1013.29 1013.64 1013.98 1014.59 1015.37 1016.49 1017.01 1017.41 1018.23 1018.03 1017.05 1016.76 1016.35 1015.88 1015.87 1015.75 1015.91 1016.13 1016.61 1017.12 1016.60 1015.85 1014.72 1013.98 1013.95 1014.66 1015.31 1015.97 1016.48 1016.94 1017.53
1011.68 1011.52 1011.85 1011.80 1011.90 1011.46 1011.59 1011.88 1012.16 1012.74 1013.11 1013.11 1013.26 1013.18 1013.57 1014.04 1014.27 1014.84 1015.55 1016.68 1017.41 1018.48 1018.42 1018.18 1018.02 1017.67 1017.43 1016.97 1016.59 1016.24 1016.12 1016.10 1016.04 1016.21 1016.29 1015.78 1015.05 1014.60 1014.92 1015.62 1016.52 1016.83 1017.15 1017.52 1017.75
1011.71 1011.81 1012.22 1012.02 1011.90 1011.84 1012.53 1011.94 1012.06 1012.78 1012.97 1013.10 1013.11 1013.55 1013.95 1014.61 1014.71 1015.06 1015.66 1016.35 1016.87 1018.19 1018.40 1018.78 1019.04 1019.28 1018.55 1017.82 1017.26 1016.76 1016.19 1015.81 1015.72 1015.99 1015.74 1015.53 1015.29 1015.22 1016.06 1016.33 1017.02 1017.47 1018.17 1018.44 1018.47
1012.76 1012.58 1011.95 1013.00 1012.35 1012.31 1012.22 1012.22 1012.38 1013.20 1013.85 1013.29 1013.65 1014.15 1014.88 1015.53 1015.97 1016.43 1016.94 1017.24 1017.53 1018.07 1018.76 1019.46 1019.93 1020.22 1019.72 1019.15 1018.42 1017.26 1016.25 1015.81 1015.82 1016.02 1016.07 1015.88 1015.72 1015.94 1016.61 1017.33 1018.39 1018.84 1019.13 1019.01 1019.74
Wind_Speed
13 13 13 14 14 13 13 12 12 12 13 14 14 14 15 14 17 7 3 9 5 4 2 8 8 9 10 5 5 7 6 8 6 8 8 7 8 1 4 8 2 2 10 19 18
14 14 14 13 13 12 14 12 11 12 13 13 13 14 13 11 10 3 3 5 4 8 10 11 10 11 6 5 6 10 3 12 7 5 9 8 4 6 8 8 9 8 7 19 16
13 13 13 12 12 12 13 11 10 12 12 12 13 14 12 13 11 12 4 4 1 7 12 5 7 10 6 8 5 4 10 9 5 1 8 8 4 3 4 8 9 12 12 17 15
14 13 13 12 12 13 12 10 10 11 11 12 13 13 12 11 2 9 9 2 7 10 7 7 11 7 11 8 5 5 8 5 7 4 0 5 8 4 5 12 6 6 13 14 15
12 11 12 12 12 12 11 10 9 10 11 11 12 11 9 10 7 6 8 5 11 9 10 4 3 2 2 6 7 10 8 10 8 6 1 3 5 2 6 9 6 5 10 12 13
11 10 10 11 11 12 10 8 8 9 9 12 11 10 8 5 1 4 7 6 5 5 2 4 4 5 5 9 3 7 9 8 7 5 4 7 6 8 7 6 8 9 10 12 11
9 10 9 10 10 9 9 8 8 8 10 10 10 8 11 7 2 6 4 5 5 8 1 4 1 6 9 5 5 8 9 10 8 8 5 8 10 11 7 4 7 10 10 10 12
9 8 8 9 8 8 7 7 7 8 10 10 7 7 2 1 8 3 5 3 2 3 6 4 1 2 5 7 7 11 10 12 8 7 4 10 12 11 7 5 9 10 8 9 11
7 7 8 8 7 6 6 5 8 10 10 8 6 10 4 5 6 2 4 1 2 3 4 2 5 3 5 12 11 9 10 1 9 2 2 8 5 13 2 7 10 13 13 10 10
5 5 6 5 6 5 5 6 5 7 8 7 9 9 4 2 3 3 2 4 5 7 8 8 7 10 11 10 7 6 3 5 6 8 5 9 10 6 4 6 7 8 8 7 9
2 4 5 6 5 6 6 6 7 7 10 6 9 4 7 4 6 3 1 6 8 8 11 5 12 5 11 7 8 5 5 4 4 5 7 4 6 5 4 3 5 4 4 4 6
2 3 5 7 7 5 6 7 7 7 10 6 6 8 2 4 8 6 6 10 10 9 4 9 6 5 2 3 3 3 5 2 1 3 6 3 5 5 8 7 8 9 10 10 12
3 3 6 8 7 3 6 5 5 5 7 6 3 4 4 3 5 6 8 4 4 4 5 9 10 2 3 2 7 3 7 6 10 7 10 9 8 11 9 12 11 13 14 13 11
4 3 6 9 3 4 4 1 4 4 4 6 5 5 4 1 5 5 3 4 1 3 7 6 4 0 1 2 8 9 4 8 10 9 8 12 4 9 12 11 10 10 10 9 9
5 2 10 9 4 4 5 0 1 4 4 4 5 2 4 2 2 6 3 4 3 7 6 6 3 1 1 5 7 6 8 8 8 10 11 11 10 12 11 9 9 9 9 8 8
3 3 8 5 1 4 2 1 3 6 3 6 4 7 9 8 5 4 4 6 5 4 6 8 2 4 7 5 4 7 8 6 7 6 6 3 8 14 8 8 6 9 8 7 8
4 6 6 2 3 3 2 4 6 5 3 7 9 5 7 8 8 7 5 6 1 5 5 6 4 5 6 10 6 8 7 4 4 4 2 6 7 11 8 7 7 7 7 7 7
4 7 3 4 2 3 4 7 7 3 6 4 8 10 5 7 4 4 6 9 10 6 2 4 8 6 7 6 7 5 7 4 5 3 5 7 6 9 10 9 8 6 5 5 5
3 4 4 3 2 3 7 6 4 7 7 11 12 9 8 5 2 5 9 7 8 9 4 4 6 5 5 5 7 4 4 3 2 1 3 5 7 10 11 9 5 4 3 5 4
5 6 4 4 3 5 6 3 3 3 2 13 7 5 7 7 6 3 2 3 4 7 6 4 2 1 3 4 3 7 3 4 1 3 4 1 7 4 12 9 8 4 8 7 4
6 7 5 2 4 6 6 3 4 5 2 4 3 5 6 5 3 3 3 5 3 4 4 6 4 5 4 2 9 2 1 4 5 4 5 5 4 9 5 3 5 8 9 10 7
3 5 3 3 7 4 5 6 1 8 4 3 2 4 6 5 3 4 5 6 2 3 4 6 2 3 5 4 4 5 4 6 3 4 3 4 8 8 6 3 3 9 8 4 8
3 5 3 4 5 3 5 6 3 8 3 4 3 1 4 6 4 6 6 4 3 4 7 6 1 4 5 8 5 5 1 2 2 3 10 7 6 2 4 5 6 10 7 6 9
3 3 4 5 4 9 10 10 7 3 4 3 6 6 8 6 4 7 8 4 2 5 3 3 2 4 6 10 9 8 10 9 9 8 10 11 16 15 10 10 13 12 4 10 11
2 2 2 7 6 9 9 10 11 6 3 6 4 4 8 4 7 5 7 7 4 4 2 4 3 5 9 12 12 12 13 13 14 14 14 16 17 16 13 11 11 9 10 14 16
2 3 3 2 6 10 4 10 12 5 8 8 7 8 6 7 3 7 5 3 2 4 1 2 0 4 4 6 9 13 16 17 16 10 14 13 16 8 8 9 10 15 16 15 16
2 1 3 2 7 8 6 9 9 9 3 2 10 8 9 9 11 10 8 6 4 1 4 2 1 3 4 11 13 6 3 1 4 6 8 11 11 11 10 13 15 12 14 12 12
Wind_Direction
272 270 273 269 268 271 272 276 277 286 293 301 306 307 306 311 303 218 241 348 297 190 277 240 209 212 216 168 242 263 183 136 135 146 136 155 140 81 25 122 256 144 58 135 141
272 267 266 267 265 264 267 269 276 286 293 298 301 302 297 318 265 185 37 326 286 195 210 205 172 193 178 151 203 258 164 81 28 60 144 162 165 127 186 144 144 138 117 126 152
272 264 258 254 255 259 261 266 275 284 290 295 303 296 304 310 264 70 73 17 216 196 268 254 166 219 163 187 176 272 84 116 142 40 157 140 134 151 161 184 141 149 148 148 165
266 257 249 247 250 252 258 265 269 279 287 295 297 298 308 253 159 48 354 290 200 249 230 188 201 190 160 160 135 96 95 136 116 148 344 167 119 172 231 85 91 129 143 156 174
253 249 247 246 245 247 252 259 268 277 283 294 289 296 278 225 58 40 302 247 215 213 242 240 203 184 125 132 145 126 121 110 132 160 139 63 162 30 175 133 151 140 155 168 176
249 244 238 238 239 239 250 254 263 272 288 282 288 297 248 230 293 351 336 300 9 246 178 278 358 338 101 128 141 123 138 133 159 162 150 243 149 220 119 185 174 173 195 179 183
244 237 233 233 232 234 241 254 263 276 279 283 285 272 262 76 315 337 314 345 347 344 15 40 50 221 149 141 141 155 162 161 189 180 150 247 198 225 125 166 191 199 213 207 189
238 229 228 227 227 229 241 252 267 275 271 265 262 256 316 96 335 270 303 200 327 6 66 73 341 58 301 104 180 198 226 191 142 178 143 247 247 133 179 207 222 201 199 216 195
240 224 218 217 221 226 235 258 259 255 247 252 240 235 134 136 220 14 292 266 164 150 80 150 234 166 181 204 197 201 230 159 147 213 284 246 327 134 120 272 262 259 208 198 222
234 219 213 204 207 202 215 239 232 255 223 220 259 240 180 55 8 296 150 254 199 161 174 220 217 207 216 225 276 120 216 173 282 120 243 251 244 37 351 280 268 223 230 220 210
294 220 187 181 177 177 172 192 190 181 208 349 131 68 112 106 207 138 114 205 207 224 219 217 251 23 36 357 355 9 297 280 109 67 298 192 266 65 35 75 118 135 167 160 156
243 205 183 170 168 170 261 267 31 33 115 104 107 92 80 276 145 126 268 224 210 212 207 218 75 67 14 7 328 288 298 74 125 122 298 204 163 95 80 71 68 97 103 106 105
327 247 192 169 140 179 248 40 338 334 129 108 58 82 53 38 35 53 307 251 234 221 227 26 85 111 295 27 324 97 333 15 316 311 260 265 174 153 108 98 94 77 68 73 99
292 214 166 132 155 164 125 22 335 334 173 138 169 109 185 222 82 28 12 335 237 117 94 72 99 194 284 55 334 296 40 307 284 268 256 208 167 151 142 115 102 97 86 82 92
327 324 175 196 82 204 88 144 319 247 190 163 105 4 119 355 100 76 21 220 163 147 250 103 150 252 308 12 328 22 321 294 281 265 276 196 258 116 156 133 112 85 67 64 71
316 103 145 231 272 79 115 167 242 244 154 158 163 148 98 86 76 96 100 73 356 118 66 101 91 15 8 300 288 298 263 237 256 250 241 86 282 146 139 103 127 90 67 58 61
100 177 201 317 93 144 174 212 207 261 140 155 152 179 108 110 81 98 108 73 78 192 179 169 84 110 350 297 182 303 291 260 209 192 278 91 268 66 96 94 66 84 85 65 62
217 237 41 60 85 154 222 217 227 59 185 103 147 156 128 131 101 150 144 98 51 318 172 233 164 1 9 16 338 358 322 2 300 339 333 144 264 123 121 116 123 112 98 60 70
313 157 156 50 307 238 233 210 137 186 149 160 164 167 143 137 160 125 72 73 36 17 18 305 102 124 49 19 321 21 33 1 228 119 247 274 130 154 156 145 142 122 341 23 4
188 193 118 323 289 239 234 275 151 44 133 172 173 270 159 143 157 166 111 39 88 28 322 55 210 76 87 259 104 348 39 248 127 293 288 287 304 3 170 199 168 328 5 331 323
207 203 88 250 254 221 199 160 142 132 256 259 162 165 130 138 143 115 89 109 28 75 7 360 301 116 251 26 354 173 187 319 312 336 298 302 312 32 41 46 4 328 342 331 337
198 198 90 222 193 212 197 156 84 148 179 119 73 119 154 147 137 108 136 60 86 349 30 39 358 282 14 70 348 326 338 316 302 307 248 313 290 66 46 34 286 301 326 333 304
219 104 125 242 157 196 154 131 139 174 136 167 135 166 178 142 123 121 118 87 66 10 22 16 92 289 184 162 171 278 221 332 351 298 255 254 266 162 224 242 325 341 13 307 323
192 120 143 218 307 190 180 169 138 56 108 96 114 145 137 142 115 154 128 130 93 52 22 307 323 302 314 322 323 289 269 262 254 256 267 274 289 295 335 346 352 338 328 321 321
278 125 70 177 218 196 181 178 160 149 134 175 161 189 152 139 139 143 133 139 157 125 194 315 271 328 299 300 304 301 289 278 266 259 254 278 286 310 331 356 330 325 319 323 328
191 163 173 103 160 170 145 194 181 133 163 161 184 151 159 153 211 169 154 207 160 162 189 61 235 334 276 293 311 305 289 276 264 282 279 294 298 356 327 327 319 339 335 317 322
101 79 178 206 179 172 187 170 172 140 40 242 144 142 94 72 66 52 46 51 73 192 187 313 295 344 276 337 322 276 222 73 302 262 266 284 288 317 318 355 350 329 305 320 345